Flight Track Log - Related Links

Times and Time Zones

All times are in EDT time to prevent confusion due to time zone crossing. See the EGF4383 flight status page for this flight to view local times or setup timezone preferences in your user account.

Time Position Orientation Groundspeed Altitude Reporting Facility
EDT Latitude Longitude Course Direction KTS MPH feet Rate Location/Type
Sun 05:50:34 PM 38.1833 -78.4333 294° West 184 212 2,400  Level Potomac TRACON
Sun 05:51:34 PM 38.2167 -78.5000 302° West 238 274 5,500 2,880 Climbing Potomac TRACON
Sun 05:52:00 PM 38.2605 -78.8077 299° West  Level FlightAware Approximate
Sun 05:52:14 PM 38.2350 -78.5419 299° West 257 296 7,200  Level Washington Center
Sun 05:53:00 PM 38.3103 -78.9246 298° West  Level FlightAware Approximate
Sun 05:53:14 PM 38.2642 -78.6328 292° West 284 327 8,900  Level Washington Center
Sun 05:54:00 PM 38.3593 -79.0421 298° West  Level FlightAware Approximate
Sun 05:54:15 PM 38.2992 -78.7294 295° West 298 343 9,000  Level Washington Center
Sun 05:55:00 PM 38.4052 -79.1616 294° West  Level FlightAware Approximate
Sun 05:55:16 PM 38.3342 -78.8264 295° West 303 349 9,700  Level Washington Center
Sun 05:56:00 PM 38.4481 -79.2831 294° West  Level FlightAware Approximate
Sun 05:56:13 PM 38.3767 -78.9500 294° West 330 380 11,100  Level Washington Center
Sun 05:58:14 PM 38.4614 -79.1872 295° West 360 414 14,100 1,014 Climbing Washington Center
Sun 05:59:52 PM 38.5269 -79.3794 294° West 400 460 14,800 1,350 Climbing Indianapolis Center
Sun 06:00:54 PM 38.5772 -79.5286 293° West 391 450 17,700 2,195 Climbing Indianapolis Center
Sun 06:01:14 PM 38.5872 -79.5600 292° West 400 460 17,800 963 Climbing Washington Center
Sun 06:02:15 PM 38.6292 -79.6792 294° West 381 438 19,000 1,426 Climbing Washington Center
Sun 06:03:16 PM 38.6786 -79.8203 294° West 381 438 20,700 1,613 Climbing Washington Center
Sun 06:04:14 PM 38.7217 -79.9503 293° West 391 450 22,200 1,210 Climbing Washington Center
Sun 06:05:15 PM 38.7669 -80.0836 294° West 396 456 23,100 661 Climbing Washington Center
Sun 06:06:03 PM 38.7983 -80.1728 294° West 422 486 23,400 436 Climbing Indianapolis Center
Sun 06:07:05 PM 38.8575 -80.3447 294° West 440 506 23,900 435 Climbing Indianapolis Center
Sun 06:08:07 PM 38.9267 -80.4836 303° West 461 531 24,300 435 Climbing Indianapolis Center
Sun 06:09:09 PM 38.9931 -80.6250 301° West 464 534 24,800 339 Climbing Indianapolis Center
Sun 06:10:11 PM 39.0608 -80.7683 301° West 469 540 25,000 97 Climbing Indianapolis Center
Sun 06:11:13 PM 39.1283 -80.9139 301° West 475 547 25,000 97 Level Indianapolis Center
Sun 06:12:15 PM 39.1967 -81.0600 301° West 476 548 25,200 581 Climbing Indianapolis Center
Sun 06:13:17 PM 39.2761 -81.2325 301° West 472 543 26,200 871 Climbing Indianapolis Center
Sun 06:14:19 PM 39.3414 -81.3753 301° West 467 537 27,000 823 Climbing Indianapolis Center
Sun 06:15:21 PM 39.4050 -81.5161 300° West 460 529 27,900 919 Climbing Indianapolis Center
Sun 06:16:23 PM 39.4683 -81.6550 301° West 454 522 28,900 710 Climbing Indianapolis Center
Sun 06:18:27 PM 39.5956 -81.9361 300° West 454 522 30,100 581 Climbing Indianapolis Center
Sun 06:19:29 PM 39.6742 -82.1111 300° West 466 536 30,700 629 Climbing Indianapolis Center
Sun 06:20:31 PM 39.7383 -82.2600 299° West 474 545 31,400 629 Climbing Indianapolis Center
Sun 06:21:33 PM 39.8044 -82.4089 300° West 475 547 32,000 290 Climbing Indianapolis Center
Sun 06:22:35 PM 39.8717 -82.5567 301° West 471 542 32,000 -48 Level Indianapolis Center
Sun 06:23:37 PM 39.9361 -82.7064 299° West 471 542 31,900  Descending Indianapolis Center
Sun 06:24:39 PM 40.0117 -82.8789 300° West 469 540 32,000 48 Climbing Indianapolis Center
Sun 06:25:41 PM 40.0767 -83.0281 300° West 472 543 32,000  Level Indianapolis Center
Sun 06:26:43 PM 40.1406 -83.1775 299° West 472 543 32,000  Level Indianapolis Center
Sun 06:27:45 PM 40.2053 -83.3275 300° West 474 545 32,000  Level Indianapolis Center
Sun 06:28:48 PM 40.2706 -83.4786 300° West 478 550 32,000  Level Indianapolis Center
Sun 06:29:50 PM 40.3339 -83.6297 299° West 474 545 32,000  Level Indianapolis Center
Sun 06:30:52 PM 40.4092 -83.8069 299° West 474 545 32,000  Level Indianapolis Center
Sun 06:31:54 PM 40.4733 -83.9572 299° West 472 543 32,000  Level Indianapolis Center
Sun 06:32:56 PM 40.5372 -84.1117 299° West 478 550 32,000  Level Indianapolis Center
Sun 06:33:58 PM 40.6008 -84.2647 299° West 474 545 32,000  Level Indianapolis Center
Sun 06:34:38 PM 40.6494 -84.3789 299° West 475 547 32,000  Level Chicago Center
Sun 06:35:40 PM 40.7119 -84.5319 298° West 476 548 32,000  Level Chicago Center
Sun 06:36:42 PM 40.7739 -84.6850 298° West 474 545 32,000  Level Chicago Center
Sun 06:37:44 PM 40.8367 -84.8383 298° West 474 545 32,000  Level Chicago Center
Sun 06:38:46 PM 40.8947 -84.9936 296° West 472 543 32,000  Level Chicago Center
Sun 06:39:48 PM 40.9547 -85.1494 297° West 474 545 32,000 -242 Level Chicago Center
Sun 06:40:50 PM 41.0250 -85.3392 296° West 476 548 31,500 -532 Descending Chicago Center
Sun 06:41:52 PM 41.0856 -85.5000 297° West 484 557 30,900 -1,344 Descending Chicago Center
Sun 06:42:55 PM 41.1450 -85.6614 296° West 485 558 28,700 -2,352 Descending Chicago Center
Sun 06:43:57 PM 41.2047 -85.8231 296° West 486 559 26,000 -1,762 Descending Chicago Center
Sun 06:45:01 PM 41.2650 -85.9864 296° West 489 563 25,000 -484 Descending Chicago Center
Sun 06:46:01 PM 41.3133 -86.1531 291° West 485 558 25,000  Level Chicago Center
Sun 06:47:03 PM 41.3542 -86.3219 288° West 482 555 25,000 -97 Level Chicago Center
Sun 06:48:05 PM 41.3969 -86.4883 289° West 476 548 24,800 -1,403 Descending Chicago Center
Sun 06:49:07 PM 41.4422 -86.6778 288° West 451 519 22,100 -2,855 Descending Chicago Center
Sun 06:50:09 PM 41.4808 -86.8258 289° West 439 505 18,900 -2,806 Descending Chicago Center
Sun 06:51:11 PM 41.5161 -86.9708 288° West 421 484 16,300 -2,855 Descending Chicago Center
Sun 06:52:13 PM 41.5503 -87.1114 288° West 407 468 13,000 -2,333 Descending Chicago Center
Sun 06:52:59 PM 41.5833 -87.2333 290° West 373 429 12,100 -962 Descending Chicago TRACON
Sun 06:53:59 PM 41.6333 -87.3500 300° West 374 430 11,300 -846 Descending Chicago TRACON
Sun 06:54:17 PM 41.6583 -87.3686 331° Northwest 374 430 11,000 -600 Descending Chicago Center
Sun 06:55:19 PM 41.7219 -87.4719 310° West 366 421 10,500 -677 Descending Chicago Center
Sun 06:56:21 PM 41.7803 -87.5675 309° West 335 386 9,600 -960 Descending Chicago Center
Sun 06:56:59 PM 41.8167 -87.6333 307° West 273 314 8,900 -1,224 Descending Chicago TRACON
Sun 06:57:59 PM 41.8333 -87.7167 285° West 261 300 7,600 -942 Descending Chicago TRACON
Sun 06:59:00 PM 41.8333 -87.8167 270° West 230 265 7,000 -942 Descending Chicago TRACON
Sun 07:00:00 PM 41.8167 -87.8833 251° West 201 231 5,700 -1,333 Descending Chicago TRACON
Sun 07:00:30 PM 41.8042 -87.9067 234° Southwest 203 234 5,000 -1,109 Descending Chicago Center
Sun 07:01:32 PM 41.8092 -87.9728 276° West 208 239 4,000 -871 Descending Chicago Center
Sun 07:02:34 PM 41.8531 -88.0133 325° Northwest 205 236 3,200 -774 Descending Chicago Center

Login

Don't have an account? Register now (free) for customized features, flight alerts, and more!